Temp
52 51 51 49 49 48 48 48 48 47 48 48 48 48 47 47 46 44 43 45 43 42 42 42 42 43 42 43 48 44 44 46 42 45 46 45 42 43 47 47 50 48 50
52 51 50 49 49 48 48 48 48 47 48 49 49 49 48 48 46 45 45 45 43 42 42 42 43 47 43 42 42 42 43 46 43 40 45 47 43 45 45 44 48 50 49
52 50 49 49 49 48 48 48 48 48 48 48 48 48 48 48 47 46 46 46 45 43 42 42 43 46 46 48 45 45 46 47 46 42 42 47 43 42 43 44 45 46 49
50 49 48 48 48 48 48 48 48 48 47 48 48 48 48 49 48 47 50 49 47 44 43 43 43 44 47 47 46 46 46 44 45 43 43 43 39 43 41 39 42 45 44
50 49 49 49 48 48 48 48 48 47 48 48 48 48 47 47 50 47 48 48 47 46 42 43 45 48 52 50 46 46 45 44 43 43 42 41 38 36 38 40 39 42 44
50 50 50 50 50 49 48 48 47 47 47 47 47 47 46 49 50 50 49 44 44 41 39 41 41 46 45 49 49 49 47 43 42 41 40 39 41 41 39 41 41 40 42
50 52 52 51 50 50 49 48 47 45 44 44 45 45 44 43 47 47 50 42 41 39 39 38 40 45 45 46 47 47 46 47 47 43 40 40 41 37 37 41 42 42 43
50 51 52 51 51 50 48 47 45 43 44 43 44 44 43 45 46 47 47 41 39 39 39 39 41 42 44 45 43 43 41 41 44 44 42 43 44 39 42 43 43 45 44
51 51 52 51 50 49 48 45 44 43 43 43 44 44 42 42 46 46 45 39 38 38 40 43 43 43 45 43 42 41 40 39 45 47 46 45 45 45 46 43 41 41 43
51 52 51 51 50 48 46 45 43 42 43 44 44 43 45 42 45 45 43 39 36 37 43 44 45 44 43 42 40 40 37 36 37 41 44 45 45 43 46 44 42 39 41
51 51 51 49 48 47 45 43 43 42 42 42 43 42 42 42 41 44 45 39 36 39 42 43 45 44 42 41 41 41 39 42 39 38 41 42 43 40 40 42 43 41 40
51 51 49 48 48 49 44 44 43 41 41 40 40 40 41 41 43 43 43 43 43 41 41 43 44 42 41 41 41 41 41 42 40 38 38 40 40 41 42 42 43 42 40
49 47 47 47 47 46 43 43 42 41 39 39 39 38 39 41 38 43 43 42 43 42 43 43 42 41 41 41 42 42 42 39 39 38 38 39 41 42 43 44 40 42 43
47 47 46 45 45 44 43 43 42 40 38 40 40 39 39 38 38 44 45 42 44 43 44 43 43 42 42 42 41 41 41 40 39 39 38 40 41 41 42 43 40 41 43
47 47 45 43 42 42 43 42 42 40 41 40 40 39 37 37 40 43 41 42 43 42 42 42 42 41 40 39 39 39 39 39 38 39 38 38 39 40 41 42 42 41 41
46 45 44 42 42 42 41 42 42 42 43 42 41 40 40 40 41 40 40 39 39 39 40 39 40 40 39 38 38 37 38 38 38 38 38 38 38 38 39 41 42 41 40
44 45 43 43 42 41 41 41 41 43 44 42 41 42 42 41 40 39 40 39 39 38 38 40 39 39 39 38 37 37 36 37 38 37 37 38 38 39 38 39 40 40 40
46 45 42 42 41 41 41 42 41 40 39 39 41 41 41 40 40 39 40 40 41 42 41 40 39 39 38 37 36 35 36 36 36 36 36 37 38 38 39 38 39 38 39
46 44 43 41 41 42 41 41 41 40 38 37 37 39 38 39 39 40 40 42 40 40 40 40 40 39 38 37 36 34 35 34 35 35 35 36 37 38 38 38 38 36 37
44 44 42 42 42 42 41 41 40 39 37 37 37 37 37 37 42 43 43 42 41 40 40 38 38 38 37 36 34 34 34 34 34 34 34 35 36 38 38 38 38 38 38
43 44 38 44 44 43 42 41 40 38 37 37 37 38 35 34 41 42 42 42 40 39 38 38 37 36 36 36 34 33 33 33 34 34 34 35 35 36 38 38 38 39 39
44 45 45 44 44 43 41 41 39 38 38 37 38 38 36 38 42 42 42 42 41 39 38 37 36 36 35 34 33 33 33 33 33 33 34 34 35 37 38 38 38 39 40
45 46 44 43 43 40 41 40 38 38 37 37 38 39 40 40 43 42 41 41 39 37 36 35 36 35 35 34 34 33 32 33 33 34 34 34 35 36 37 37 38 39 40
45 45 44 43 42 41 40 39 38 37 38 38 38 38 38 41 42 41 40 39 37 36 36 36 35 35 34 35 35 35 35 35 35 34 34 35 35 35 37 38 38 40 42
44 43 42 41 41 40 39 39 38 37 37 39 38 40 39 41 40 40 38 37 36 35 35 35 35 35 36 36 37 36 34 32 33 33 34 36 36 37 38 38 39 40 42
43 43 41 40 40 39 38 38 37 37 37 40 42 42 42 40 39 38 36 36 35 35 35 36 36 37 37 37 36 33 33 33 33 33 36 37 36 37 38 39 40 41 42
MSLP
1019.94 1020.09 1020.39 1020.88 1020.83 1021.34 1021.35 1021.26 1021.25 1021.23 1021.21 1021.13 1021.12 1020.96 1020.84 1020.63 1020.33 1020.07 1019.79 1019.55 1019.35 1019.02 1018.57 1018.26 1017.75 1017.14 1016.67 1016.04 1015.34 1014.93 1014.64 1014.36 1013.96 1013.32 1013.07 1012.55 1012.01 1011.56 1010.90 1010.36 1009.73 1009.12 1008.28
1019.99 1020.53 1020.90 1020.86 1020.93 1021.20 1021.22 1021.18 1021.13 1021.22 1021.01 1021.01 1021.03 1020.89 1020.63 1020.34 1020.05 1019.90 1019.58 1019.35 1019.19 1018.83 1018.34 1017.93 1017.32 1016.67 1016.10 1015.54 1015.16 1014.78 1014.40 1014.07 1013.86 1013.28 1012.86 1012.32 1011.96 1011.21 1010.70 1010.18 1009.39 1008.62 1008.00
1020.11 1020.65 1020.85 1020.76 1020.98 1021.07 1021.05 1021.00 1021.03 1021.08 1020.92 1020.74 1020.74 1020.64 1020.35 1019.93 1019.61 1019.35 1019.07 1018.86 1018.53 1018.28 1017.87 1017.45 1016.86 1016.16 1015.63 1015.04 1014.72 1014.31 1013.93 1013.60 1013.40 1013.09 1012.53 1012.13 1011.57 1011.05 1010.47 1009.82 1009.29 1008.60 1007.83
1020.18 1020.59 1020.75 1020.74 1020.76 1020.76 1020.78 1020.81 1020.83 1020.92 1020.84 1020.58 1020.41 1020.28 1019.98 1019.54 1019.13 1018.67 1018.58 1018.25 1017.95 1017.69 1017.33 1016.96 1016.46 1015.93 1015.25 1014.75 1014.39 1013.98 1013.57 1013.34 1013.11 1012.78 1012.22 1011.85 1011.61 1010.97 1010.59 1010.15 1009.22 1008.45 1007.66
1020.19 1020.42 1020.54 1020.48 1020.49 1020.58 1020.67 1020.63 1020.54 1020.48 1020.32 1020.20 1020.10 1019.80 1019.42 1019.04 1018.53 1018.04 1017.81 1017.52 1017.41 1017.15 1016.93 1016.60 1016.14 1015.61 1015.00 1014.64 1014.21 1013.65 1013.29 1013.12 1012.84 1012.44 1012.07 1011.77 1011.54 1011.04 1010.76 1009.86 1009.34 1008.50 1007.31
1020.04 1020.15 1020.23 1020.24 1020.21 1020.29 1020.35 1020.27 1020.22 1020.06 1020.00 1019.85 1019.65 1019.47 1018.95 1018.40 1017.98 1017.57 1017.30 1017.23 1017.17 1017.07 1016.86 1016.38 1015.93 1015.50 1015.14 1014.59 1014.25 1013.80 1013.46 1013.08 1012.68 1012.34 1011.88 1011.54 1011.05 1010.91 1010.43 1009.94 1009.32 1008.52 1007.17
1019.89 1019.90 1019.79 1019.82 1019.91 1019.95 1019.98 1019.97 1020.00 1019.92 1019.77 1019.49 1019.31 1019.03 1018.50 1018.02 1017.55 1017.26 1017.18 1017.18 1017.08 1016.88 1016.62 1016.27 1015.80 1015.46 1015.06 1014.54 1014.12 1013.64 1013.24 1012.80 1012.42 1012.01 1011.69 1011.29 1010.83 1010.61 1010.38 1009.58 1008.85 1008.24 1007.47
1019.62 1019.55 1019.55 1019.62 1019.71 1019.72 1019.79 1019.76 1019.73 1019.61 1019.36 1019.17 1018.88 1018.59 1018.23 1017.96 1017.59 1017.36 1017.26 1017.10 1017.00 1016.77 1016.43 1016.05 1015.61 1015.23 1014.77 1014.36 1013.89 1013.35 1012.96 1012.47 1012.03 1011.67 1011.37 1010.96 1010.57 1010.15 1009.96 1009.42 1008.77 1007.60 1006.91
1019.24 1019.35 1019.41 1019.49 1019.62 1019.59 1019.65 1019.61 1019.46 1019.36 1019.09 1018.79 1018.54 1018.28 1018.13 1017.89 1017.58 1017.33 1017.18 1017.09 1016.95 1016.61 1016.07 1015.51 1015.18 1014.87 1014.49 1014.15 1013.57 1013.08 1012.67 1012.15 1011.59 1011.08 1010.77 1010.41 1010.00 1009.60 1009.38 1009.14 1008.45 1007.85 1006.94
1019.15 1019.19 1019.21 1019.29 1019.33 1019.55 1019.49 1019.35 1019.09 1019.01 1018.85 1018.41 1018.15 1018.00 1017.96 1017.84 1017.44 1017.27 1017.17 1017.11 1017.02 1016.40 1015.53 1014.97 1014.72 1014.54 1014.19 1013.79 1013.36 1012.87 1012.49 1012.01 1011.55 1010.83 1010.35 1009.94 1009.68 1009.42 1009.06 1008.98 1008.61 1008.07 1007.48
1018.98 1019.04 1019.05 1019.10 1019.20 1019.16 1019.18 1019.06 1018.82 1018.66 1018.43 1018.15 1018.05 1017.90 1017.87 1017.71 1017.39 1017.21 1017.04 1016.89 1016.79 1016.24 1015.52 1014.83 1014.37 1014.12 1013.74 1013.32 1013.03 1012.67 1012.34 1011.73 1011.12 1010.71 1010.29 1009.89 1009.50 1009.21 1008.94 1008.65 1008.30 1008.15 1007.75
1018.92 1018.93 1019.14 1019.13 1019.09 1019.05 1019.02 1018.70 1018.71 1018.61 1018.42 1018.23 1018.27 1018.24 1017.81 1017.47 1017.24 1016.88 1016.63 1016.44 1016.17 1015.85 1015.24 1014.72 1014.25 1013.83 1013.36 1012.91 1012.55 1012.26 1011.89 1011.39 1010.92 1010.59 1010.18 1009.75 1009.41 1009.03 1008.58 1008.25 1007.86 1007.50 1007.34
1019.07 1019.21 1019.25 1019.12 1019.02 1018.97 1019.08 1019.02 1018.77 1018.54 1018.43 1018.54 1018.56 1018.36 1017.87 1017.38 1017.08 1016.69 1016.33 1015.97 1015.54 1015.24 1014.81 1014.46 1013.97 1013.44 1012.92 1012.47 1012.08 1011.73 1011.40 1011.11 1010.75 1010.34 1010.01 1009.67 1009.30 1008.85 1008.40 1007.87 1007.41 1006.98 1006.39
1019.24 1019.29 1019.32 1019.41 1019.29 1019.17 1019.06 1018.91 1018.80 1018.57 1018.60 1018.61 1018.45 1018.22 1017.78 1017.46 1016.97 1016.43 1015.95 1015.44 1014.91 1014.48 1014.19 1013.91 1013.45 1012.94 1012.45 1012.07 1011.60 1011.26 1010.98 1010.68 1010.38 1010.10 1009.86 1009.57 1009.15 1008.69 1008.28 1007.88 1007.55 1007.04 1006.50
1019.31 1019.36 1019.44 1019.55 1019.50 1019.37 1019.08 1018.78 1018.68 1018.40 1018.33 1018.24 1018.14 1018.08 1017.83 1017.40 1016.85 1016.29 1015.66 1014.96 1014.30 1013.93 1013.84 1013.48 1012.87 1012.39 1011.94 1011.53 1011.18 1010.87 1010.58 1010.34 1010.08 1009.80 1009.64 1009.39 1009.07 1008.65 1008.26 1007.87 1007.54 1007.17 1006.83
1019.36 1019.48 1019.57 1019.67 1019.63 1019.41 1019.09 1018.76 1018.41 1018.15 1017.91 1017.88 1017.99 1017.87 1017.49 1017.16 1016.49 1015.78 1015.08 1014.39 1013.80 1013.52 1013.55 1013.02 1012.42 1011.98 1011.54 1011.10 1010.81 1010.48 1010.21 1009.93 1009.78 1009.56 1009.33 1009.18 1009.00 1008.70 1008.38 1007.94 1007.66 1007.39 1007.07
1019.44 1019.54 1019.64 1019.71 1019.61 1019.37 1019.07 1018.83 1018.71 1018.07 1017.87 1017.94 1017.82 1017.69 1017.38 1016.88 1016.23 1015.46 1014.76 1014.14 1013.46 1013.18 1013.01 1012.42 1011.97 1011.50 1011.09 1010.79 1010.54 1010.25 1009.90 1009.65 1009.48 1009.33 1009.16 1008.95 1008.87 1008.60 1008.31 1008.08 1007.83 1007.55 1007.21
1019.31 1019.40 1019.55 1019.44 1019.33 1019.11 1018.93 1018.82 1018.73 1018.69 1018.65 1018.30 1017.87 1017.65 1017.10 1016.58 1015.91 1015.14 1014.50 1013.86 1013.26 1012.70 1012.48 1011.98 1011.45 1011.03 1010.74 1010.47 1010.15 1009.92 1009.62 1009.36 1009.15 1009.04 1008.95 1008.80 1008.64 1008.45 1008.27 1008.17 1008.01 1007.76 1007.50
1019.25 1019.37 1019.23 1019.21 1019.08 1018.83 1018.79 1018.88 1018.81 1018.68 1018.66 1018.48 1018.14 1017.44 1016.85 1016.40 1015.65 1014.89 1014.30 1013.81 1013.19 1012.59 1012.10 1011.56 1011.05 1010.57 1010.36 1010.10 1009.76 1009.52 1009.34 1009.12 1008.96 1008.79 1008.68 1008.60 1008.43 1008.30 1008.20 1008.19 1008.10 1007.95 1007.69
1019.23 1019.20 1019.06 1019.01 1018.90 1018.74 1018.84 1018.90 1018.79 1018.78 1018.78 1018.68 1018.24 1017.64 1016.84 1016.35 1015.45 1014.66 1014.02 1013.44 1012.94 1012.41 1011.80 1011.21 1010.74 1010.35 1009.98 1009.74 1009.44 1009.20 1008.97 1008.79 1008.61 1008.44 1008.37 1008.37 1008.32 1008.22 1008.14 1008.21 1008.18 1008.08 1007.83
1019.33 1019.12 1019.03 1018.86 1018.81 1018.77 1018.77 1018.92 1019.04 1019.00 1018.99 1018.78 1018.33 1017.46 1016.85 1016.56 1015.53 1014.70 1013.81 1013.09 1012.62 1012.17 1011.57 1011.21 1010.69 1010.25 1009.78 1009.42 1009.06 1008.82 1008.61 1008.41 1008.24 1008.14 1008.13 1008.13 1008.19 1008.18 1008.21 1008.24 1008.20 1008.09 1007.88
1019.33 1019.21 1019.13 1019.11 1018.99 1018.86 1019.04 1019.29 1019.10 1019.00 1019.02 1018.83 1018.21 1017.41 1016.75 1016.26 1015.36 1014.57 1013.65 1013.04 1012.53 1012.06 1011.68 1011.20 1010.56 1010.02 1009.66 1009.24 1008.86 1008.54 1008.24 1008.00 1007.84 1007.82 1007.85 1007.96 1008.12 1008.14 1008.23 1008.22 1008.19 1008.07 1007.85
1019.40 1019.36 1019.39 1019.40 1019.21 1019.11 1019.27 1019.37 1019.30 1019.25 1019.21 1018.84 1018.13 1017.40 1016.79 1016.11 1015.20 1014.49 1013.78 1013.09 1012.48 1011.95 1011.61 1011.01 1010.35 1009.74 1009.26 1008.85 1008.42 1008.13 1007.82 1007.53 1007.41 1007.49 1007.65 1007.87 1008.05 1008.16 1008.23 1008.27 1008.26 1008.08 1007.76
1019.71 1019.73 1019.74 1019.66 1019.54 1019.55 1019.77 1019.81 1019.71 1019.59 1019.37 1018.79 1018.01 1017.40 1016.89 1016.08 1015.27 1014.68 1013.99 1013.29 1012.67 1012.11 1011.46 1010.81 1010.16 1009.60 1008.98 1008.39 1007.80 1007.31 1007.00 1006.84 1006.90 1007.20 1007.54 1007.79 1008.04 1008.30 1008.31 1008.41 1008.36 1008.18 1007.99
1020.12 1020.13 1020.12 1020.12 1020.18 1020.33 1020.31 1020.17 1020.02 1019.80 1019.40 1018.68 1017.95 1017.33 1016.80 1016.16 1015.55 1014.93 1014.26 1013.63 1012.95 1012.28 1011.38 1010.66 1009.95 1009.33 1008.63 1008.00 1007.39 1006.98 1006.74 1006.65 1006.81 1007.12 1007.54 1007.89 1008.21 1008.45 1008.53 1008.63 1008.55 1008.41 1008.59
1020.51 1020.51 1020.55 1020.57 1020.77 1020.80 1020.71 1020.56 1020.31 1019.97 1019.45 1018.67 1018.02 1017.41 1016.82 1016.41 1015.98 1015.31 1014.62 1013.88 1013.20 1012.39 1011.49 1010.68 1009.86 1009.13 1008.46 1007.88 1007.41 1006.98 1006.62 1006.61 1006.98 1007.36 1007.71 1008.12 1008.49 1008.79 1008.90 1008.99 1009.00 1008.91 1009.12
Wind_Speed
5 4 5 3 4 3 3 2 3 2 5 5 3 4 5 5 5 3 4 5 5 6 5 5 7 6 5 5 5 4 4 3 5 3 3 6 4 6 9 8 9 8 8
5 4 4 3 3 3 4 4 4 5 5 5 4 6 6 7 6 6 6 4 5 6 6 6 8 6 7 6 4 6 4 4 3 8 7 5 5 8 6 7 8 8 9
5 5 3 3 4 4 5 5 5 6 7 6 5 6 7 8 7 7 7 6 5 6 6 6 9 8 8 8 7 5 3 4 5 5 7 7 3 4 6 6 7 9 8
6 5 5 6 6 5 5 6 6 5 7 7 6 7 7 9 8 9 6 6 6 5 6 7 8 8 10 9 7 7 5 5 6 6 7 8 3 7 4 5 8 7 10
6 6 7 6 5 4 5 6 6 6 6 6 6 7 7 7 8 7 7 6 5 5 6 7 8 14 20 15 8 8 4 5 6 7 8 6 8 4 7 6 6 9 10
6 6 5 4 4 5 5 5 5 5 5 5 6 6 8 6 10 13 9 4 4 6 6 6 6 11 10 13 14 14 12 10 10 8 7 8 8 6 5 8 8 6 7
5 4 3 4 4 4 4 3 5 6 4 6 7 6 7 6 8 5 6 3 5 5 6 6 6 6 11 7 11 16 14 16 15 9 8 8 6 5 5 10 10 8 6
4 2 3 3 3 3 3 4 5 4 5 4 6 6 2 3 4 5 5 5 5 6 6 6 6 9 9 9 10 9 9 7 8 6 6 7 8 7 6 7 10 8 5
3 4 3 3 3 3 4 6 4 4 4 4 4 3 1 3 2 4 5 5 5 7 7 6 6 9 10 14 9 8 8 8 9 13 12 12 12 11 7 5 6 6 3
4 3 3 3 3 4 5 6 4 2 5 5 4 3 5 6 8 3 6 3 5 6 8 7 12 9 11 12 8 8 6 7 7 8 7 6 5 7 11 4 4 5 4
3 1 1 2 4 4 5 3 4 5 5 3 3 3 5 6 8 8 8 4 4 6 6 7 7 12 13 13 11 6 7 9 9 5 4 4 5 4 4 4 4 3 4
1 2 3 3 4 3 4 5 5 5 4 3 2 4 5 6 7 8 7 8 8 4 7 7 9 14 14 13 10 11 12 12 4 3 4 4 4 5 5 5 6 5 5
3 2 3 4 4 4 4 6 4 4 3 1 2 4 5 4 4 10 12 11 11 6 5 9 16 14 14 10 11 13 11 4 4 4 4 4 4 5 7 6 5 6 6
1 1 3 4 6 5 3 2 3 3 1 2 3 5 5 5 5 6 6 5 9 8 8 7 10 11 12 12 10 7 5 4 5 4 4 5 4 3 4 4 3 4 2
1 2 4 3 4 5 4 4 3 3 4 3 4 3 4 5 5 11 12 8 7 7 6 6 6 6 6 6 5 5 5 4 4 4 4 4 4 3 3 3 2 3 2
1 3 3 4 4 4 4 4 4 5 6 7 7 4 4 8 14 16 16 14 12 9 3 6 8 7 7 7 6 6 5 5 4 4 4 4 3 3 4 3 2 2 2
1 4 3 3 3 4 3 1 1 5 7 5 6 8 8 11 15 14 12 13 12 7 4 7 7 7 7 7 6 6 6 5 4 4 3 4 3 3 3 2 3 2 2
1 4 2 3 3 3 3 2 1 2 3 4 5 6 10 13 15 15 14 11 7 5 5 7 8 7 7 7 6 6 6 5 4 4 4 3 3 2 1 1 2 2 3
2 3 4 3 2 3 3 1 2 3 3 3 4 6 8 12 14 12 11 6 8 8 8 8 8 7 7 7 6 5 6 5 4 4 3 3 3 2 1 0 2 3 3
3 4 3 0 1 1 3 2 4 3 3 4 4 6 4 5 8 9 8 8 7 8 8 8 8 8 7 7 6 5 5 5 4 3 3 3 2 2 2 1 1 2 2
2 3 3 2 3 2 3 3 3 3 2 4 5 6 10 5 8 9 9 9 8 8 9 8 8 8 6 6 6 5 5 5 4 3 3 2 2 2 2 1 1 2 2
2 2 3 3 3 3 1 2 3 1 3 5 7 5 10 6 7 9 10 9 9 8 8 8 8 7 7 6 6 6 5 5 3 3 3 2 2 2 2 1 1 1 1
3 3 3 3 3 4 2 3 3 3 4 5 7 7 7 8 8 9 10 10 10 9 8 8 8 8 7 6 5 5 6 5 4 3 3 3 3 2 2 1 0 1 1
4 4 4 4 4 5 5 4 4 5 5 6 7 7 7 9 9 10 10 10 10 10 9 8 8 10 9 8 7 5 5 4 1 3 4 4 4 4 3 2 1 2 5
4 4 5 5 5 4 4 4 4 5 5 6 7 7 7 10 10 10 10 10 10 10 11 10 8 11 10 14 11 10 7 4 2 5 5 7 5 5 3 2 2 3 7
4 5 4 4 5 4 4 4 4 5 6 7 8 9 8 9 9 10 10 10 10 10 12 9 11 15 14 10 11 12 7 4 6 7 6 6 6 4 3 3 4 3 7
Wind_Direction
98 80 102 151 128 176 205 223 248 269 279 288 305 272 237 250 258 269 274 278 306 310 307 306 300 286 283 299 305 290 276 257 277 295 293 294 286 285 299 301 297 294 298
134 143 180 171 167 218 232 235 242 251 269 270 280 262 244 251 254 259 273 292 301 307 298 306 299 304 294 291 287 289 287 292 277 298 297 291 282 302 281 298 306 311 307
156 170 189 200 215 224 234 243 243 260 264 276 258 256 250 253 258 254 251 266 275 288 295 298 294 300 296 297 290 273 268 281 289 283 289 290 277 300 307 308 308 308 296
170 184 202 219 221 227 241 253 250 269 273 273 266 261 258 265 263 257 259 256 266 288 301 301 302 301 300 299 308 283 276 287 291 287 297 306 311 302 294 302 312 314 311
177 192 219 222 243 258 267 266 263 263 261 267 275 276 268 266 266 261 246 248 267 293 308 307 315 320 322 323 322 314 298 297 297 295 297 297 299 303 320 306 300 309 305
185 199 215 232 253 243 261 257 264 270 283 282 281 284 288 288 290 292 291 261 311 317 308 303 312 322 318 331 334 328 317 313 302 297 291 293 294 297 298 309 306 301 323
185 187 232 250 215 220 242 260 274 275 289 290 296 298 302 309 315 10 45 356 318 305 301 307 319 312 316 304 318 313 308 307 307 300 297 286 300 288 292 303 303 286 274
169 200 184 167 206 236 252 271 279 267 273 295 298 308 324 4 63 42 358 334 324 310 297 292 301 301 296 323 312 298 291 284 290 287 290 288 284 280 269 298 303 290 270
147 163 186 205 241 258 281 286 271 278 299 283 285 279 199 265 287 344 343 331 314 297 290 294 307 297 308 325 317 296 293 294 299 303 297 293 292 304 291 307 315 322 303
171 202 217 250 256 274 283 285 261 272 280 290 269 200 251 258 257 311 4 324 307 313 313 317 303 284 309 319 320 305 292 285 296 304 305 306 292 303 310 272 289 308 307
192 211 298 312 283 275 293 285 288 304 298 284 230 258 279 261 273 290 321 302 280 301 305 315 307 311 308 316 320 298 299 300 293 295 292 299 305 303 291 270 262 258 289
131 31 355 327 320 327 307 310 333 321 316 281 266 311 294 287 285 271 288 293 295 289 299 308 303 305 305 308 313 299 308 315 297 303 296 298 304 311 308 297 289 268 230
82 3 326 326 325 344 337 336 336 342 340 336 301 285 290 300 293 293 282 278 290 278 273 285 298 294 292 296 291 299 313 299 301 293 302 298 294 292 299 303 298 286 275
96 359 341 344 330 347 340 297 307 324 24 301 293 295 301 308 309 307 300 280 281 278 270 287 284 293 288 285 292 293 291 291 295 294 292 297 291 299 313 319 297 317 303
126 322 333 337 327 327 310 279 303 246 191 222 260 270 296 308 295 309 299 297 290 266 292 290 289 300 306 304 296 290 287 287 295 293 291 297 304 311 312 321 303 318 349
313 340 317 324 328 309 316 324 303 241 263 265 302 262 302 279 301 308 307 310 295 280 275 278 289 296 300 300 299 298 293 288 282 291 288 283 295 314 314 321 317 315 334
340 312 321 310 309 314 305 231 274 314 314 352 14 350 320 295 310 310 314 324 303 304 250 287 287 290 301 302 298 291 292 287 282 278 287 280 291 287 312 335 332 325 331
12 318 285 276 264 275 231 232 216 269 303 307 319 318 293 300 306 309 313 321 320 304 286 292 293 296 304 298 293 292 288 287 275 269 275 285 279 271 303 346 335 337 329
340 328 317 327 274 235 197 221 261 274 281 286 311 308 293 299 301 308 312 315 309 307 307 302 301 302 299 293 284 281 283 276 272 272 261 260 273 276 267 29 335 324 321
335 307 294 73 225 284 194 230 269 286 301 319 313 299 296 319 320 327 328 320 312 307 306 309 311 306 300 294 281 279 281 278 266 255 256 248 253 276 129 87 334 333 345
356 340 9 63 1 298 222 251 322 336 326 317 303 295 303 310 313 318 318 321 319 315 316 315 309 307 305 302 292 284 282 277 263 246 247 230 221 213 146 226 291 304 304
34 22 26 12 337 314 343 356 339 5 356 320 308 305 311 314 321 321 320 325 325 327 319 311 306 303 308 299 290 292 285 276 264 241 230 199 186 187 143 165 250 293 303
66 56 49 27 358 343 26 24 40 19 345 316 313 319 329 324 330 330 328 328 331 328 317 311 312 311 308 301 284 269 270 268 248 232 201 164 163 147 131 141 158 353 327
64 50 51 29 37 55 57 42 15 0 337 320 316 320 326 328 335 335 331 332 329 326 322 321 321 317 314 312 302 284 262 256 223 194 171 150 146 131 119 116 76 5 89
59 51 56 61 59 57 47 17 354 342 323 317 319 326 333 339 341 338 335 334 329 328 327 326 322 322 322 324 325 332 322 312 164 138 138 144 128 126 108 98 65 53 90
60 62 72 71 59 50 34 2 339 331 323 328 334 343 339 344 342 337 337 333 333 330 327 328 328 334 336 338 337 331 344 101 124 120 125 124 122 118 95 90 75 64 89